Location: Caltech
(34.1382°N, 118.1253°W)
Time: 04:55:59
(UTC-07:00)

Sapphire - Visible Passes

Search period start: 26 June 2016 00:00
Search period end: 06 July 2016 00:00
Orbit: 785 x 797 km, 67.1° (Epoch: 25 June)

Date Brightness Start Highest point End Pass type
(mag) Time Alt. Az. Time Alt. Az. Time Alt. Az.
26 Jun ? 03:08:17 66° SW 03:09:00 80° WNW 03:14:29 10° NNE visible
26 Jun ? 04:51:58 10° WNW 04:53:16 11° NW 04:54:33 10° NNW visible
27 Jun ? 02:38:31 73° ESE 02:38:31 73° ESE 02:43:50 10° NNE visible
27 Jun ? 04:19:20 10° W 04:22:21 15° NW 04:25:23 10° NNW visible
28 Jun ? 02:08:42 46° E 02:08:42 46° E 02:13:05 10° NE visible
28 Jun ? 03:49:26 16° W 03:51:30 20° NW 03:55:28 10° N visible
29 Jun ? 01:38:51 30° ENE 01:38:51 30° ENE 01:42:13 10° NE visible
29 Jun ? 03:19:34 25° WNW 03:20:43 27° NW 03:25:19 10° N visible
30 Jun ? 01:08:58 19° ENE 01:08:58 19° ENE 01:11:09 10° NE visible
30 Jun ? 02:49:41 37° WNW 02:49:57 37° WNW 02:55:00 10° N visible
01 Jul ? 00:39:02 12° ENE 00:39:02 12° ENE 00:39:48 10° ENE visible
01 Jul ? 02:19:45 50° NW 02:19:45 50° NW 02:24:34 10° NNE visible
02 Jul ? 01:49:47 54° N 01:49:47 54° N 01:54:03 10° NNE visible
03 Jul ? 01:19:46 44° NE 01:19:46 44° NE 01:23:26 10° NNE visible
03 Jul ? 03:00:29 12° WNW 03:02:01 14° NW 03:04:43 10° NNW visible
04 Jul ? 00:49:43 32° NE 00:49:43 32° NE 00:52:42 10° NE visible
04 Jul ? 02:30:26 18° WNW 02:31:09 19° NW 02:34:55 10° N visible
05 Jul ? 00:19:38 23° ENE 00:19:38 23° ENE 00:21:52 10° NE visible
05 Jul ? 02:00:21 25° NW 02:00:21 25° NW 02:04:48 10° N visible
05 Jul ? 23:49:30 16° ENE 23:49:30 16° ENE 23:50:52 10° NE visible
